カタログに戻る

STARLINK-37082

運用中通信VLEO
NORAD 68182·PAYLOAD·🇺🇸 United States

打ち上げ Mar 14, 2026 から Vandenberg Space Force Base

Loading…

次のパス (今後24時間)

TLE

最新Source: CelesTrak SupGP

元期: Sep 14, 2026, 22:57 UTC

1 68182C 26050R   26257.95673611  .00000053  00000+0  15544-5 0  2576
2 68182  53.1568 103.8022 0001486  73.9497 325.0510 15.34385466    11

AllMySatでSTARLINK-37082をリアルタイム追跡

Download on the App Store